This is the latest recevied weather packets stored in our database for station/object KB8TTR. If no packets are shown the sender has not sent any weather packets the latest 10 day(s).
| Time | Temp. | Humidity | Pressure | Rain* | Wind** | Luminosity | Snow |
|---|---|---|---|---|---|---|---|
| 1788544720 | 21.67° C | 98% | 1016 hPa | 0 mm | - | 420 W/m² | - |
| 1788544419 | 21.67° C | 97% | 1016.1 hPa | 0 mm | - | 171 W/m² | - |
| 1788544118 | 21.67° C | 97% | 1015.9 hPa | 1.78 mm | - | 86 W/m² | - |
| 1788543815 | 21.67° C | 97% | 1015.7 hPa | 3.05 mm | - | 84 W/m² | - |
| 1788543511 | 21.11° C | 97% | 1016 hPa | 1.27 mm | - | 69 W/m² | - |
| 1788543206 | 21.11° C | 97% | 1016.6 hPa | 3.05 mm | - | 49 W/m² | - |
| 1788542902 | 21.11° C | 97% | 1016.8 hPa | 4.83 mm | - | 44 W/m² | - |
| 1788542601 | 21.11° C | 97% | 1017 hPa | 3.05 mm | - | 39 W/m² | - |
| 1788542296 | 21.11° C | 96% | 1017.2 hPa | 1.27 mm | - | 40 W/m² | - |
| 1788541991 | 21.67° C | 96% | 1017.5 hPa | 1.27 mm | - | 36 W/m² | - |
| 1788541687 | 21.67° C | 96% | 1017.8 hPa | 0 mm | - | 36 W/m² | - |
| 1788541383 | 21.67° C | 96% | 1018.1 hPa | 0 mm | - | 34 W/m² | - |
| 1788541082 | 21.67° C | 96% | 1018.6 hPa | 1.78 mm | - | 31 W/m² | - |
| 1788540776 | 21.67° C | 95% | 1019.1 hPa | 1.78 mm | - | 41 W/m² | - |
| 1788540476 | 21.67° C | 96% | 1019.5 hPa | 0 mm | - | 33 W/m² | - |
| 1788540172 | 21.67° C | 96% | 1019.7 hPa | 0 mm | - | 23 W/m² | - |
| 1788539868 | 21.67° C | 97% | 1019.9 hPa | 1.78 mm | - | 63 W/m² | - |
| 1788539563 | 21.67° C | 97% | 1020.4 hPa | 1.78 mm | - | 30 W/m² | - |
| 1788539262 | 22.22° C | 97% | 1020.2 hPa | 1.27 mm | - | 27 W/m² | - |
| 1788538957 | 22.22° C | 97% | 1020.1 hPa | 3.05 mm | - | 50 W/m² | - |
| 1788538653 | 22.22° C | 97% | 1019.5 hPa | 1.78 mm | - | 73 W/m² | - |
| 1788538352 | 22.22° C | 97% | 1019.5 hPa | 0 mm | - | 39 W/m² | - |
| 1788538048 | 22.22° C | 96% | 1019.3 hPa | 0 mm | - | 65 W/m² | - |
| 1788537744 | 22.22° C | 96% | 1018.6 hPa | 1.27 mm | - | 103 W/m² | - |
| 1788537443 | 22.22° C | 96% | 1018.7 hPa | 1.27 mm | - | 95 W/m² | - |
* Rain latest hour (hover to see other rain measurements)
** Current wind speed in m/s (hover to see current wind gust speed)